[[{"header":{"parameterUnit":"m.s-1","parameterCategory":1,"la1":30.2991,"la2":30.254,"lo1":-89.0895,"lo2":-89.0444,"dy":0.0017,"dx":0.0017,"nx":28,"ny":28,"refTime":"2024-10-21T21:00:00:Z","depth":0,"parameterNumber":2,"parameterNumberName":"U-component_of_WINDS"},"data":[0,0,0,0,0,0,0,0,0,0,0,0,0,0,0,0,0,0,0,0,0,0,0,0,0,0,0,0,0,0,0,0,0,0,0,0,0,0,0,0,0,0,0,0,0,0,0,0,0,0,0,0,0,0,0,0,0,0,-0.4841,-0.4841,0,-0.4906,-0.4907,-0.4908,-0.494,-0.494,-0.494,-0.494,-0.5008,-0.501,-0.5012,0,0,0,0,0,0,0,0,0,0,0,0,0,-0.4744,-0.4746,-0.4841,-0.4842,-0.4842,-0.4906,-0.4907,-0.4908,-0.494,-0.494,-0.494,-0.494,-0.5008,-0.501,-0.5012,0,0,0,0,0,0,0,0,0,0,0,0,0,-0.4796,-0.4746,-0.4841,-0.4866,-0.4869,-0.4906,-0.4907,-0.4908,-0.494,-0.494,-0.494,-0.494,-0.5007,-0.501,-0.5012,-0.5029,0,0,-0.5021,-0.5022,0,0,0,0,0,0,0,0,-0.4793,-0.4799,-0.4861,-0.4864,-0.4868,-0.4915,-0.4898,-0.4949,-0.494,-0.4913,-0.494,-0.494,-0.4977,-0.4983,-0.4995,-0.5033,-0.5036,-0.5021,-0.5023,-0.5024,-0.5025,0,0,0,0,0,0,0,-0.4789,-0.4796,-0.4867,-0.4862,-0.4866,-0.4874,-0.4882,-0.4908,-0.4945,-0.4915,-0.4918,-0.4925,-0.4979,-0.4992,-0.4997,-0.5037,-0.5021,-0.5023,-0.5025,-0.5026,-0.5092,-0.5092,0,0,0,0,0,0,-0.4781,-0.4793,-0.4865,-0.4869,-0.4829,-0.4876,-0.4884,-0.49,-0.4944,-0.4951,-0.4925,-0.4926,-0.4987,-0.4993,-0.4999,-0.5022,-0.5024,-0.5026,-0.5028,-0.5092,-0.5092,-0.5092,0,0,0,0,0,0,-0.4779,-0.4787,-0.4862,-0.4832,-0.4842,-0.4878,-0.4895,-0.4901,-0.4914,-0.4952,-0.4958,-0.4932,-0.4988,-0.4995,-0.5022,-0.5025,-0.5028,-0.503,-0.5092,-0.5092,-0.5092,-0.5068,0,0,0,0,0,0,-0.4776,-0.4786,-0.4793,-0.4832,-0.4843,-0.4883,-0.4895,-0.4902,-0.4919,-0.4921,-0.496,-0.4966,-0.4988,-0.5017,-0.5024,-0.5029,-0.5032,-0.5091,-0.5092,-0.5092,-0.5069,-0.5068,-0.5067,0,0,0,0,0,-0.4772,-0.4784,-0.4793,-0.4802,-0.4852,-0.4883,-0.489,-0.4915,-0.4919,-0.4926,-0.495,-0.4965,-0.5023,-0.502,-0.5028,-0.5033,-0.5091,-0.5092,-0.5092,-0.507,-0.5068,-0.5067,0,0,0,0,0,0,-0.4745,-0.479,-0.48,-0.4824,-0.485,-0.4888,-0.4898,-0.4912,-0.4937,-0.4939,-0.4969,-0.4977,-0.5001,-0.502,-0.5015,-0.5052,-0.5059,-0.5061,-0.5039,-0.5038,-0.5037,-0.5032,-0.5035,0,0,0,0,0,-0.4742,-0.4763,-0.4801,-0.4818,-0.483,-0.4862,-0.4876,-0.4893,-0.4921,-0.4932,-0.4958,-0.4984,-0.5009,-0.5024,-0.5049,-0.5072,-0.5081,-0.5079,-0.5078,-0.5077,-0.5078,-0.5092,-0.5092,-0.5093,-0.5093,-0.5093,0,0,-0.4736,-0.4763,-0.4774,-0.4814,-0.4835,-0.4856,-0.4871,-0.4893,-0.4909,-0.4936,-0.4962,-0.4982,-0.5013,-0.5038,-0.505,-0.5054,-0.508,-0.5077,-0.5076,-0.5078,-0.5092,-0.5092,-0.5092,-0.5093,-0.5093,-0.5093,0,0,-0.4735,-0.4757,-0.4775,-0.4796,-0.4828,-0.4849,-0.4853,-0.489,-0.4904,-0.493,-0.4951,-0.497,-0.5012,-0.5034,-0.505,-0.5057,-0.5072,-0.5064,-0.5058,-0.5071,-0.5071,-0.5071,-0.5073,-0.5074,-0.5065,-0.5065,-0.5065,0,-0.4724,-0.4756,-0.4782,-0.4803,-0.4819,-0.4844,-0.4862,-0.4881,-0.492,-0.4931,-0.4935,-0.4987,-0.501,-0.504,-0.5042,-0.5054,-0.506,-0.506,-0.5068,-0.5069,-0.5069,-0.5072,-0.5073,-0.5064,-0.5064,-0.5064,-0.5064,0,-0.474,-0.4762,-0.4772,-0.4809,-0.4827,-0.4846,-0.4875,-0.489,-0.4905,-0.4925,-0.4952,-0.4981,-0.5011,-0.502,-0.5035,-0.5052,-0.5053,-0.5063,-0.507,-0.5068,-0.5071,-0.5072,-0.5063,-0.5063,-0.5063,-0.5064,0,0,-0.4725,-0.4775,-0.4778,-0.4795,-0.4832,-0.485,-0.487,-0.4899,-0.4912,-0.4938,-0.4955,-0.499,-0.4998,-0.5017,-0.5035,-0.5046,-0.505,-0.5054,-0.5055,-0.5052,-0.507,-0.5063,-0.5064,-0.5059,-0.506,-0.506,-0.5068,0,-0.473,-0.4767,-0.479,-0.4818,-0.4839,-0.4862,-0.488,-0.4904,-0.4924,-0.4945,-0.4966,-0.499,-0.5,-0.5011,-0.5023,-0.5047,-0.5054,-0.5046,-0.5077,-0.5078,-0.5069,-0.5066,-0.5059,-0.5065,-0.5069,-0.5069,-0.5069,0,-0.474,-0.4765,-0.4794,-0.4829,-0.4839,-0.4854,-0.4883,-0.4902,-0.4931,-0.4944,-0.4965,-0.4983,-0.5005,-0.501,-0.5042,-0.5036,-0.505,-0.5064,-0.5065,-0.5069,-0.5074,-0.507,-0.5067,-0.5068,-0.5072,-0.5072,-0.5071,0,-0.4726,-0.4767,-0.479,-0.4803,-0.4844,-0.4855,-0.4872,-0.4901,-0.4917,-0.4942,-0.4953,-0.4981,-0.4996,-0.5017,-0.5042,-0.5043,-0.5071,-0.5078,-0.5084,-0.5083,-0.5089,-0.5088,-0.5088,-0.5097,-0.5097,-0.5097,-0.5097,0,-0.473,-0.4747,-0.4784,-0.4798,-0.4818,-0.4845,-0.4864,-0.4884,-0.4909,-0.4928,-0.4949,-0.4966,-0.4998,-0.5019,-0.5039,-0.5063,-0.5069,-0.5081,-0.5086,-0.5079,-0.5078,-0.5089,-0.509,-0.5097,-0.5097,-0.5097,-0.5097,0,-0.4718,-0.4743,-0.477,-0.4806,-0.4816,-0.4829,-0.486,-0.4875,-0.4895,-0.4918,-0.4925,-0.4957,-0.4983,-0.501,-0.5046,-0.5059,-0.5082,-0.5089,-0.5072,-0.5075,-0.5078,-0.5078,-0.5086,-0.5088,-0.5095,-0.5095,-0.5095,0,-0.4718,-0.4732,-0.4769,-0.4783,-0.48,-0.4822,-0.4838,-0.4865,-0.4881,-0.4915,-0.4926,-0.4953,-0.4976,-0.5016,-0.5043,-0.507,-0.5078,-0.5079,-0.5083,-0.5075,-0.5079,-0.5078,-0.5079,-0.5078,-0.5078,-0.5078,-0.5078,0,-0.4716,-0.4728,-0.4751,-0.4778,-0.4796,-0.4819,-0.4843,-0.4853,-0.4884,-0.4902,-0.4928,-0.4946,-0.4982,-0.5009,-0.5039,-0.5057,-0.5073,-0.5076,-0.5079,-0.5072,-0.5062,-0.5068,-0.5069,-0.5076,-0.5076,-0.5076,-0.5077,-0.5077,-0.4711,-0.4724,-0.4752,-0.4777,-0.4797,-0.4818,-0.4834,-0.4856,-0.4878,-0.4909,-0.4924,-0.495,-0.4978,-0.502,-0.5039,-0.506,-0.5065,-0.5068,-0.5069,-0.507,-0.5068,-0.5058,-0.5066,-0.5066,-0.5066,-0.5066,-0.5066,0,-0.4711,-0.473,-0.4752,-0.4784,-0.4803,-0.4815,-0.4841,-0.4857,-0.488,-0.4904,-0.4927,-0.4957,-0.4983,-0.5012,-0.504,-0.5051,-0.5059,-0.5058,-0.5058,-0.5062,-0.5063,-0.5058,-0.5051,-0.5051,-0.5051,-0.5051,-0.5051,-0.5051,-0.4713,-0.4735,-0.4751,-0.4784,-0.4803,-0.4829,-0.4843,-0.4863,-0.4883,-0.4915,-0.4937,-0.4955,-0.4982,-0.5012,-0.5036,-0.5044,-0.5053,-0.505,-0.506,-0.506,-0.5062,-0.5063,-0.5058,-0.5052,-0.5052,-0.5057,-0.5057,-0.5057]},{"header":{"parameterUnit":"m.s-1","parameterCategory":1,"la1":30.2991,"la2":30.254,"lo1":-89.0895,"lo2":-89.0444,"dy":0.0017,"dx":0.0017,"nx":28,"ny":28,"refTime":"2024-10-21T21:00:00:Z","depth":0,"parameterNumber":3,"parameterNumberName":"V-component_of_WINDS"},"data":[0,0,0,0,0,0,0,0,0,0,0,0,0,0,0,0,0,0,0,0,0,0,0,0,0,0,0,0,0,0,0,0,0,0,0,0,0,0,0,0,0,0,0,0,0,0,0,0,0,0,0,0,0,0,0,0,0,0,-2.7603,-2.7603,0,-2.7615,-2.7615,-2.7615,-2.7563,-2.7562,-2.756,-2.7559,-2.7569,-2.757,-2.7572,0,0,0,0,0,0,0,0,0,0,0,0,0,-2.7534,-2.7535,-2.7603,-2.7603,-2.7603,-2.7615,-2.7615,-2.7615,-2.7563,-2.7562,-2.756,-2.7558,-2.7568,-2.757,-2.7572,0,0,0,0,0,0,0,0,0,0,0,0,0,-2.7557,-2.7536,-2.7603,-2.7579,-2.7577,-2.7615,-2.7615,-2.7615,-2.7564,-2.7562,-2.7559,-2.7557,-2.7568,-2.757,-2.7573,-2.7634,0,0,-2.758,-2.7581,0,0,0,0,0,0,0,0,-2.7555,-2.7559,-2.7582,-2.7581,-2.7579,-2.7585,-2.7594,-2.7622,-2.7564,-2.7569,-2.7559,-2.7556,-2.7576,-2.7578,-2.7585,-2.7634,-2.7635,-2.758,-2.7582,-2.7583,-2.7584,0,0,0,0,0,0,0,-2.7554,-2.7558,-2.7608,-2.7583,-2.758,-2.7567,-2.7568,-2.7599,-2.7585,-2.7568,-2.7564,-2.7567,-2.7574,-2.7583,-2.7585,-2.7635,-2.758,-2.7583,-2.7584,-2.7585,-2.7737,-2.7739,0,0,0,0,0,0,-2.7556,-2.7557,-2.7607,-2.7608,-2.7561,-2.757,-2.7571,-2.7585,-2.7584,-2.7582,-2.7569,-2.7564,-2.7579,-2.7582,-2.7585,-2.7658,-2.7583,-2.7585,-2.7587,-2.7734,-2.7737,-2.774,0,0,0,0,0,0,-2.7554,-2.7561,-2.7607,-2.7582,-2.7587,-2.7574,-2.759,-2.7587,-2.7595,-2.7585,-2.7582,-2.758,-2.7578,-2.7581,-2.7623,-2.7658,-2.7587,-2.7589,-2.7731,-2.7735,-2.7739,-2.7804,0,0,0,0,0,0,-2.7553,-2.756,-2.7584,-2.7583,-2.7588,-2.7645,-2.7593,-2.7589,-2.76,-2.7594,-2.7594,-2.7592,-2.7576,-2.7619,-2.7625,-2.766,-2.7591,-2.7728,-2.7733,-2.7737,-2.7799,-2.781,-2.7819,0,0,0,0,0,-2.755,-2.7601,-2.7585,-2.7592,-2.7617,-2.7647,-2.765,-2.7631,-2.7603,-2.7626,-2.762,-2.7592,-2.7653,-2.7624,-2.763,-2.7666,-2.7726,-2.7732,-2.7737,-2.7795,-2.7808,-2.7819,0,0,0,0,0,0,-2.7605,-2.76,-2.7583,-2.7635,-2.7642,-2.7638,-2.7667,-2.7646,-2.766,-2.7654,-2.7629,-2.763,-2.7676,-2.7675,-2.7643,-2.7726,-2.7684,-2.7691,-2.7726,-2.7738,-2.7748,-2.7748,-2.7593,0,0,0,0,0,-2.7624,-2.7649,-2.7643,-2.7689,-2.7694,-2.768,-2.7692,-2.7677,-2.7683,-2.7686,-2.7682,-2.7689,-2.7709,-2.7723,-2.7741,-2.7798,-2.7798,-2.7826,-2.7836,-2.7844,-2.7852,-2.7883,-2.7896,-2.7759,-2.7758,-2.7758,0,0,-2.7662,-2.7662,-2.7679,-2.7701,-2.7704,-2.7731,-2.7683,-2.7713,-2.7732,-2.769,-2.773,-2.7727,-2.7733,-2.7783,-2.7804,-2.7783,-2.7889,-2.7852,-2.7858,-2.7861,-2.789,-2.7903,-2.7915,-2.7762,-2.7762,-2.7761,0,0,-2.7745,-2.7747,-2.7787,-2.7792,-2.7799,-2.779,-2.78,-2.78,-2.7797,-2.7836,-2.7806,-2.7828,-2.7863,-2.7869,-2.7877,-2.7964,-2.794,-2.797,-2.8024,-2.8055,-2.8066,-2.8075,-2.8108,-2.812,-2.7977,-2.7977,-2.7977,0,-2.7791,-2.7831,-2.781,-2.7843,-2.7854,-2.7818,-2.7858,-2.7864,-2.7876,-2.7884,-2.786,-2.7905,-2.7906,-2.7957,-2.7979,-2.7985,-2.7996,-2.7971,-2.8066,-2.8075,-2.8084,-2.8115,-2.8127,-2.7981,-2.798,-2.798,-2.798,0,-2.7888,-2.7916,-2.7948,-2.7962,-2.7976,-2.8012,-2.7997,-2.8013,-2.7997,-2.7991,-2.8032,-2.8032,-2.805,-2.8061,-2.8045,-2.8111,-2.8098,-2.807,-2.8028,-2.8101,-2.813,-2.8141,-2.7986,-2.7985,-2.7984,-2.7983,0,0,-2.8007,-2.801,-2.8023,-2.8029,-2.8035,-2.8056,-2.8091,-2.811,-2.8125,-2.8134,-2.8164,-2.8195,-2.817,-2.8179,-2.8163,-2.819,-2.8261,-2.8159,-2.8159,-2.818,-2.8336,-2.8359,-2.8373,-2.8245,-2.8247,-2.8248,-2.8336,0,-2.809,-2.8151,-2.8134,-2.8195,-2.8222,-2.8188,-2.8219,-2.8225,-2.822,-2.8241,-2.8234,-2.8258,-2.8222,-2.8228,-2.8253,-2.8247,-2.8293,-2.824,-2.8272,-2.8274,-2.8274,-2.8387,-2.8411,-2.8494,-2.8347,-2.8349,-2.8351,0,-2.8196,-2.8212,-2.8276,-2.8279,-2.8289,-2.8317,-2.8334,-2.8354,-2.8361,-2.8355,-2.8366,-2.8345,-2.8379,-2.8336,-2.8383,-2.8348,-2.836,-2.8359,-2.8362,-2.8366,-2.8318,-2.8396,-2.8519,-2.8533,-2.8368,-2.8366,-2.8365,0,-2.8279,-2.8315,-2.8359,-2.8366,-2.8369,-2.839,-2.8392,-2.8397,-2.841,-2.8424,-2.8433,-2.8451,-2.8461,-2.8475,-2.8459,-2.8429,-2.851,-2.8465,-2.8507,-2.8508,-2.8527,-2.8526,-2.8656,-2.8531,-2.8531,-2.8531,-2.8531,0,-2.8375,-2.8416,-2.8397,-2.8424,-2.8469,-2.8449,-2.8494,-2.8492,-2.8497,-2.8523,-2.8494,-2.8519,-2.8496,-2.8519,-2.8506,-2.8549,-2.8553,-2.855,-2.8546,-2.8554,-2.8554,-2.8562,-2.8557,-2.8534,-2.8534,-2.8533,-2.8532,0,-2.8475,-2.8464,-2.851,-2.851,-2.8511,-2.8545,-2.8545,-2.857,-2.8563,-2.8596,-2.8603,-2.8591,-2.8617,-2.8603,-2.8628,-2.862,-2.8676,-2.8663,-2.8674,-2.8672,-2.8716,-2.8713,-2.8857,-2.8876,-2.8737,-2.8738,-2.8739,0,-2.8538,-2.857,-2.8574,-2.859,-2.8595,-2.8621,-2.8635,-2.8615,-2.8631,-2.8642,-2.8666,-2.8689,-2.8707,-2.875,-2.8744,-2.8763,-2.8752,-2.8802,-2.8755,-2.8762,-2.8756,-2.8755,-2.8759,-2.8812,-2.8813,-2.8814,-2.8816,0,-2.8652,-2.8646,-2.8667,-2.8688,-2.8706,-2.872,-2.8732,-2.8747,-2.8728,-2.8747,-2.8773,-2.8787,-2.8815,-2.8839,-2.8856,-2.8857,-2.8834,-2.883,-2.8841,-2.885,-2.8856,-2.8856,-2.8702,-2.8827,-2.8826,-2.8825,-2.8825,-2.8824,-2.8737,-2.8765,-2.8773,-2.8798,-2.8805,-2.8818,-2.8842,-2.8839,-2.8861,-2.8883,-2.8869,-2.8901,-2.8908,-2.8929,-2.8934,-2.8958,-2.8939,-2.8954,-2.8959,-2.8963,-2.8971,-2.8851,-2.8961,-2.8961,-2.896,-2.896,-2.896,0,-2.8852,-2.8856,-2.8879,-2.8898,-2.8919,-2.8895,-2.8907,-2.8926,-2.8955,-2.8963,-2.8982,-2.9014,-2.9037,-2.9033,-2.9054,-2.9075,-2.9065,-2.9081,-2.908,-2.9082,-2.8986,-2.8975,-2.9089,-2.9089,-2.9089,-2.9089,-2.9089,-2.9089,-2.8914,-2.8959,-2.8954,-2.9003,-2.9005,-2.9038,-2.9047,-2.9059,-2.9066,-2.9103,-2.9122,-2.912,-2.9124,-2.9145,-2.9166,-2.9164,-2.9174,-2.9195,-2.919,-2.9101,-2.9088,-2.9076,-2.9066,-2.9197,-2.9197,-2.9284,-2.9284,-2.9285]}]]